Terminal Aerodrome Forecast
Issued by NWS Aberdeen, SD

Home | Current Version | Previous Version | Text Only | Print | Product List | Glossary On
Versions: 1 2 3 4 5 6 7 8 9 10 11 12 13 14 15 16 17 18 19 20 21 22 23 24 25 26 27 28 29 30 31 32 33 34 35 36 37 38 39 40 41 42 43 44 45 46 47 48 49 50
000
FTAK31 PAFA 311131
TAFABR
TAF
PABR 311131Z 3112/0112 12012KT P6SM VCSH FEW005 OVC070
     FM311600 16013KT P6SM VCSH SCT005 OVC050
     FM312000 24009KT 4SM -RA BR BKN005 OVC015
     FM010400 27015KT 2SM -SHRA BR OVC003=

USA.gov is the U.S. government's official web portal to all federal, state and local government web resources and services.